CAPE
0 0 0 0 0 0 0 9 95 78 121 202 324 321 595 700 530 425 222 269 747 976 2127 2623 2527 1789 1747 1501 754 653 565 401 425 117 306 166 98 198 148 86 56 24 0
0 0 0 0 0 0 0 0 26 53 65 190 486 564 735 978 1424 659 774 1620 2262 2606 2781 2448 2314 2082 1706 1527 804 736 581 303 166 119 204 81 31 0 19 28 57 5 0
0 0 0 0 0 0 0 0 0 0 0 25 66 117 412 912 1135 2598 2917 2885 2907 2688 2662 2085 2011 1978 1840 1527 729 570 374 405 263 175 166 0 0 0 0 0 0 0 0
0 0 0 0 0 1 10 20 16 0 0 11 48 142 527 955 1251 1474 1891 2837 3153 2626 2328 1765 1759 2108 1894 1284 896 701 437 341 219 192 65 2 0 0 0 0 0 0 0
0 0 0 0 0 81 102 252 292 190 55 0 0 17 136 598 1166 1409 2403 2897 3090 1971 2013 1997 1760 1755 1650 1196 875 674 343 210 85 41 23 0 0 0 0 0 0 0 0
0 0 0 0 0 0 3 20 50 51 11 0 0 97 221 394 863 1211 1518 2694 1702 1692 1921 1816 1643 1551 1269 1166 929 660 396 160 83 3 0 0 0 0 0 0 0 0 0
0 0 0 0 0 8 0 29 58 42 56 3 0 0 122 663 948 946 352 2371 1797 1766 1647 1015 368 80 0 0 0 11 124 172 63 0 0 0 0 0 0 0 0 0 0
0 0 0 0 0 0 0 2 5 22 6 76 181 87 50 323 1062 1087 180 1829 1809 1581 1293 397 336 0 0 0 0 0 0 0 19 161 7 0 0 0 0 0 0 1 0
0 0 0 0 0 0 0 0 1 59 69 32 121 211 711 887 1018 369 0 1418 1328 1241 1221 725 420 214 2 1 37 49 0 0 1 0 26 2 29 0 0 0 0 11 23
2 4 1 0 9 0 0 0 2 7 83 54 144 330 537 858 939 0 0 1474 1209 1000 697 315 728 467 4 86 57 0 0 0 0 0 0 0 0 0 0 0 0 13 0
0 1 4 0 5 27 15 25 7 43 209 317 419 375 601 803 54 0 76 1209 992 779 220 0 0 294 0 7 169 0 3 0 0 0 0 0 0 0 0 0 1 2 0
2 1 3 7 3 7 25 44 203 320 304 269 416 374 632 24 1 0 243 892 583 536 324 0 0 2 0 0 54 0 32 0 0 0 0 5 3 0 0 0 0 0 0
9 8 0 0 7 3 3 72 48 163 392 342 393 636 578 1 1 0 160 206 310 310 8 0 2 2 2 1 2 3 0 0 0 0 6 6 4 0 0 0 0 0 1
5 18 5 0 0 0 24 85 139 239 403 446 482 538 426 1 1 0 0 0 1 0 1 0 0 0 0 1 1 1 0 0 1 7 22 28 17 0 0 0 0 0 0
10 6 0 0 0 2 17 104 195 205 188 112 200 572 125 4 0 0 0 0 0 0 0 0 0 0 0 0 0 0 0 1 15 21 41 32 8 0 3 0 0 0 0
12 0 0 1 3 9 9 12 0 0 1 0 18 522 172 51 0 0 0 0 0 0 0 0 0 0 0 0 0 0 2 16 22 56 44 18 8 10 43 11 1 1 0
10 9 21 10 3 59 69 173 111 0 0 0 0 7 0 0 0 0 0 0 0 0 0 0 0 0 0 0 0 0 0 0 4 31 17 8 10 8 9 11 4 0 0
14 0 3 8 6 7 41 86 1 20 2 0 0 0 1 0 0 0 0 0 0 0 0 0 0 0 0 0 0 1 7 5 8 7 10 10 9 6 1 0 0 4 1
1 4 1 9 20 12 38 63 19 2 7 1 1 1 0 1 1 0 0 0 0 0 0 0 0 0 0 0 0 8 2 5 6 10 11 16 9 3 1 0 0 0 0
2 38 1 48 2 4 7 2 34 4 0 0 0 0 0 0 0 0 0 0 0 0 0 2 0 0 0 0 0 1 0 1 2 11 8 0 0 6 0 2 0 0 0
0 0 5 1 26 13 19 3 3 0 0 0 0 0 0 0 0 0 0 0 0 0 0 0 0 0 0 0 3 2 3 3 5 0 1 9 7 0 0 6 0 0 0
16 52 87 21 3 1 4 3 2 1 0 0 0 0 0 0 0 0 0 0 0 0 0 0 0 0 0 0 0 0 0 1 10 2 0 2 1 0 3 1 0 0 0
87 29 4 0 0 0 1 1 1 0 0 0 0 0 0 0 0 0 0 0 0 0 0 0 0 0 0 0 0 0 0 0 0 0 0 0 0 0 0 0 0 0 0
0 0 0 0 0 0 1 0 0 0 0 0 0 0 0 0 0 0 0 0 0 0 0 0 0 0 0 0 0 0 0 0 0 0 0 0 0 0 0 0 0 0 0
0 0 0 0 0 0 0 0 0 0 0 0 0 0 0 0 0 0 0 0 0 0 0 0 0 0 0 0 0 0 0 0 0 0 0 0 0 0 0 0 0 0 0
0 0 0 0 0 0 0 0 0 0 0 0 0 0 0 0 0 0 0 0 0 0 0 0 0 0 0 0 0 0 0 0 0 0 0 0 0 0 0 0 0 0 0
CIN
0 0 0 0 0 0 0 -222 -133 -147 -142 -162 -147 -120 -98 -156 -255 -291 -357 -382 -216 -154 -27 -6 -27 -97 -75 -76 -162 -190 -164 -168 -92 -175 -169 -259 -201 -133 -136 -146 -99 -74 0
0 0 0 0 0 0 0 -14 -204 -173 -199 -128 -113 -99 -78 -59 -75 -250 -218 -128 -11 -4 -8 -41 -42 -59 -47 -57 -146 -158 -160 -176 -191 -124 -229 -276 -205 0 -180 -153 -104 -4 0
0 0 0 0 0 0 0 0 0 0 0 -293 -212 -133 -92 -62 -61 -15 -15 -17 -13 -11 -24 -62 -47 -58 -38 -55 -160 -159 -162 -132 -139 -175 -224 0 0 0 0 0 0 0 0
0 0 0 0 0 -42 -106 -153 -120 0 0 -206 -187 -108 -54 -59 -62 -63 -44 -27 -15 -29 -44 -87 -63 -42 -50 -77 -114 -125 -117 -126 -172 -204 -255 -86 0 0 0 0 0 0 0
0 0 0 0 0 -111 -104 -89 -78 -63 -61 -1 0 -265 -105 -65 -39 -53 -19 -24 -17 -51 -50 -57 -66 -60 -72 -95 -107 -93 -123 -163 -292 -314 -253 0 0 0 0 0 0 0 0
0 0 0 0 0 0 -121 -142 -126 -108 -133 0 0 -131 -65 -65 -40 -33 -41 -35 -102 -76 -48 -57 -75 -57 -71 -58 -68 -73 -107 -189 -257 -43 0 0 0 0 0 0 0 0 0
0 0 0 0 0 -229 0 -145 -143 -135 -87 -41 0 0 -90 -33 -22 -57 -248 -58 -80 -74 -81 -161 -250 -298 0 0 0 -289 -277 -201 -217 0 0 0 0 0 0 0 -8 0 0
0 0 0 0 0 0 0 -117 -87 -180 -201 -69 -37 -32 -121 -48 -38 -71 -255 -68 -66 -101 -139 -272 -265 0 0 0 0 0 0 0 -98 -115 -94 0 0 0 0 0 0 -70 0
0 0 0 0 0 0 0 0 -92 -194 -107 -110 -44 -31 -37 -35 -64 -177 0 -110 -109 -139 -135 -190 -212 -254 -331 -100 -343 -301 0 0 0 0 -36 -24 -106 0 0 0 0 -32 -37
-17 -16 -10 0 -12 0 0 0 -108 -107 -102 -71 -45 -46 -39 -23 -74 0 0 -97 -122 -141 -189 -247 -96 -137 -482 -290 -306 0 0 0 0 0 0 0 0 0 0 0 0 -37 0
0 -11 -6 0 -14 -34 -44 -67 -105 -123 -84 -39 -28 -55 -36 -42 -118 0 -222 -139 -147 -160 -279 0 0 -141 -1 -57 -181 0 -56 0 0 0 0 0 0 0 0 0 -54 -59 0
-6 -3 -4 -6 -8 -4 -41 -73 -52 -41 -39 -34 -35 -41 -46 -100 0 0 -285 -165 -203 -172 -206 0 0 0 0 0 -115 -15 -131 0 0 0 0 -111 -107 0 0 0 0 0 0
-3 -3 -2 0 -6 -8 -74 -69 -77 -60 -35 -24 -21 -9 -30 0 0 0 -230 -284 -186 -207 -53 0 0 0 0 0 0 0 0 0 0 0 -76 -79 -98 -5 0 0 0 0 -6
-2 -2 -66 -16 0 0 -96 -90 -123 -70 -22 -11 -1 -3 -28 0 0 0 0 0 0 0 0 0 0 0 0 0 0 0 0 0 -87 -81 -57 -46 -84 0 0 0 0 0 0
-2 -2 -1 0 0 -77 -145 -99 -68 -74 -26 -29 -6 -4 -62 -81 0 0 0 0 0 0 0 0 0 0 0 0 0 0 0 -102 -73 -71 -65 -55 -71 -2 -24 0 0 0 0
-1 0 0 -1 -56 -67 -111 -140 0 0 0 0 -17 -3 -91 -250 0 0 0 0 0 0 0 0 0 0 0 0 0 0 -66 -56 -65 -92 -66 -75 -43 -32 -15 -40 -56 -33 0
0 -7 -15 -15 -12 -2 -4 -3 -12 0 0 0 0 -66 0 0 0 0 0 0 0 0 0 0 0 0 0 0 0 0 0 0 -77 -46 -50 -53 -34 -28 -28 -23 -38 -2 0
-1 0 -8 -10 -24 -32 -45 -11 0 -35 -2 0 0 0 0 0 0 0 0 0 0 0 0 0 0 0 0 0 0 -11 -62 -52 -52 -53 -46 -39 -41 -51 -59 0 -6 -35 -26
-2 -3 -1 -1 -7 -8 -5 -19 -11 -12 -1 0 0 0 0 0 0 0 0 0 0 0 0 0 0 0 0 0 0 -62 -68 -66 -53 -44 -44 -42 -51 -61 -55 0 0 0 0
-3 -9 -5 -2 -56 -18 -11 -13 -1 -5 -1 0 0 0 0 0 0 0 0 0 0 0 0 -70 0 0 0 0 -39 -81 0 -78 -70 -42 -54 -16 0 -54 -15 -64 0 0 0
0 0 -1 -1 -4 -25 -14 0 0 0 0 0 0 0 0 0 -10 0 0 0 0 0 0 0 0 0 -1 0 -70 -73 -69 -66 -53 -9 -51 -61 -61 -9 0 -53 0 0 -1
0 -1 -1 -8 -2 -1 -1 0 0 0 0 0 0 0 0 0 0 0 0 0 0 0 0 0 0 0 0 0 0 0 0 -16 -47 -63 0 -80 -33 0 -38 -71 0 0 0
-18 -30 -25 -1 -2 0 -1 0 0 0 0 0 0 0 0 0 0 0 0 0 0 0 0 0 0 0 0 0 0 0 0 0 0 0 0 0 0 0 0 0 0 0 0
0 0 0 0 0 0 -1 0 0 0 0 0 0 0 0 0 0 0 0 0 0 0 0 0 0 0 0 0 0 0 0 0 0 0 0 0 0 0 0 0 0 0 0
0 0 0 0 -1 0 0 0 0 0 0 0 0 0 0 0 0 0 0 0 0 0 0 0 0 0 0 0 0 0 0 0 0 0 0 0 0 0 0 0 0 0 0
0 0 0 0 0 0 0 0 0 0 0 0 0 0 0 0 0 0 0 0 0 0 0 0 0 0 0 0 0 0 0 0 0 0 0 0 0 0 0 0 0 0 0
Wind_Speed
7 7 7 7 8 7 7 7 7 7 8 8 9 8 10 12 13 12 14 14 18 17 17 12 13 6 5 4 4 3 4 4 4 2 1 2 2 3 2 3 1 1 1
6 7 8 9 8 8 7 8 7 7 7 10 8 10 9 10 13 16 18 18 22 17 16 12 13 7 10 6 5 6 5 4 5 5 2 2 2 1 1 2 2 3 3
4 3 4 8 7 8 8 8 8 8 9 9 10 11 14 13 12 14 16 16 15 16 14 14 13 11 11 5 5 5 4 3 4 4 3 2 2 1 1 1 2 3 3
3 4 5 5 7 9 10 9 9 9 11 11 11 12 13 14 13 11 13 13 14 11 13 13 10 11 11 8 6 6 5 4 3 3 2 3 3 2 2 1 2 1 2
1 4 6 7 5 7 8 8 8 8 11 12 13 13 14 12 11 12 11 13 11 10 10 11 11 12 13 10 6 6 6 4 4 5 3 3 3 2 3 2 2 2 1
5 5 5 5 7 6 8 10 8 8 10 13 14 13 14 11 15 16 15 11 9 12 10 8 8 11 11 14 10 10 8 7 5 5 3 4 4 3 3 4 3 3 1
5 6 6 8 10 7 9 10 8 8 8 11 15 14 14 11 15 16 17 12 10 9 9 8 6 5 9 8 8 11 9 10 8 7 6 5 5 6 6 5 4 3 3
8 8 9 11 13 11 11 12 8 7 9 10 11 13 14 12 14 14 18 13 8 8 10 10 9 10 9 10 8 7 6 6 6 4 6 6 5 7 7 6 6 4 3
13 12 11 12 15 13 14 13 8 7 9 9 7 11 11 12 13 16 12 12 7 8 9 10 9 10 14 14 9 8 6 4 4 6 7 9 10 11 7 5 3 4 2
15 14 14 14 11 11 13 13 7 7 10 9 7 10 16 10 14 11 12 8 9 7 5 6 9 10 15 14 9 8 7 6 6 5 5 6 6 6 8 4 4 3 2
15 16 15 15 12 9 11 10 5 8 8 7 7 7 10 10 5 11 13 9 9 8 7 5 3 12 14 12 11 8 7 9 7 6 5 4 3 4 3 3 3 3 2
15 15 15 12 8 10 12 10 6 7 7 7 6 8 6 3 7 11 12 13 12 10 9 5 5 11 13 10 8 10 13 10 6 5 4 3 3 3 3 4 3 3 2
14 13 13 12 11 12 9 6 5 5 6 7 7 8 4 4 4 6 9 14 14 10 8 10 15 13 14 9 9 10 11 6 6 5 4 3 3 4 3 3 2 2 2
14 13 10 11 12 11 9 6 6 7 6 6 7 9 6 7 6 5 9 12 17 13 15 10 10 10 8 8 5 4 4 5 6 6 4 3 1 3 2 2 2 1 1
13 11 10 9 11 9 8 8 8 8 8 8 9 10 11 11 10 11 12 11 10 12 14 7 7 5 5 4 4 4 5 5 5 4 4 4 3 3 2 2 2 1 2
11 9 10 9 8 7 8 6 4 5 14 15 17 12 10 12 18 17 18 18 21 17 8 9 7 6 7 4 4 4 3 5 4 4 3 4 3 3 3 2 2 2 2
12 11 8 8 7 8 7 6 7 2 7 21 20 18 19 21 18 21 22 21 15 11 10 7 7 6 6 6 5 4 4 4 5 4 4 4 4 3 4 2 2 2 1
12 13 9 8 9 9 7 7 7 8 4 7 14 17 21 21 22 22 21 15 8 6 7 7 6 6 6 5 5 4 5 4 4 4 4 4 4 4 3 3 2 2 2
8 9 11 10 8 10 8 7 9 9 9 13 12 11 15 22 21 16 12 8 9 7 6 6 6 5 5 5 5 4 6 5 4 4 4 4 4 3 3 3 4 4 3
10 6 3 6 6 11 8 9 9 10 12 12 12 11 11 14 11 9 8 8 7 6 7 8 6 6 5 6 5 5 5 4 4 3 4 4 4 4 3 3 2 3 3
3 5 4 6 7 12 10 10 10 12 12 12 10 7 11 12 10 9 9 7 6 7 7 7 5 5 4 5 5 4 4 4 4 5 4 4 4 3 3 3 2 2 3
9 13 13 11 12 12 12 11 12 12 12 12 11 10 13 10 10 9 8 8 7 7 6 8 6 5 4 4 5 5 5 5 4 4 4 4 3 3 4 6 6 5 5
10 13 13 12 13 14 13 12 13 12 11 11 11 11 10 9 10 10 9 9 8 8 8 8 7 6 6 7 7 5 5 4 3 5 5 5 6 7 7 8 6 5 5
14 14 13 12 12 12 12 12 11 12 12 12 11 10 10 10 10 11 10 9 9 9 9 8 8 8 7 7 6 6 5 6 7 9 11 9 9 9 8 7 6 6 5
12 13 12 11 12 12 12 12 12 12 12 11 11 11 10 10 11 11 9 9 10 10 10 7 7 9 10 11 10 10 9 12 10 9 9 11 11 10 8 6 6 6 6
12 13 11 10 11 11 11 11 11 11 11 10 10 10 11 11 10 10 9 10 10 10 10 8 10 12 12 10 10 11 11 11 11 10 9 9 10 8 6 7 8 6 9
Wind_Direction
220 229 231 238 235 234 232 238 226 226 229 240 238 218 228 224 229 225 232 237 245 239 236 225 231 212 211 213 228 188 177 153 161 272 195 98 79 106 66 50 110 202 128
224 248 240 231 230 231 233 234 230 236 245 253 249 253 235 238 225 223 222 217 226 227 226 219 228 209 216 207 213 190 183 174 135 184 173 102 91 105 115 72 344 63 128
215 277 292 257 231 221 224 232 239 246 254 254 255 256 258 242 227 224 220 217 220 216 215 208 208 195 211 192 196 170 175 170 164 156 155 121 119 87 23 1 93 86 65
214 239 253 252 249 246 226 222 227 237 245 243 246 249 256 253 250 225 218 214 219 205 210 204 201 195 201 200 178 172 186 176 165 137 116 110 117 223 126 145 39 77 108
112 315 301 262 253 252 248 217 220 224 246 248 250 251 250 252 248 241 222 217 210 207 208 204 198 191 185 178 162 183 173 155 139 118 121 124 163 156 178 189 138 128 53
226 236 263 293 282 264 264 250 229 231 244 258 254 254 254 249 248 232 229 213 186 204 198 196 187 176 168 166 162 178 173 154 145 129 164 164 191 159 165 154 142 124 189
253 238 243 270 272 266 270 266 231 231 233 249 259 251 250 250 238 233 224 202 190 198 173 154 146 148 137 126 114 114 113 137 147 153 161 183 161 177 157 158 169 155 181
230 238 243 250 258 253 265 263 256 240 238 241 250 251 248 250 242 225 220 203 183 174 163 160 150 154 150 143 140 126 120 112 122 138 164 176 172 168 162 168 173 156 72
233 233 243 249 251 240 250 260 259 254 251 242 237 254 247 248 231 224 198 210 169 163 140 152 153 163 160 151 146 137 129 119 59 81 105 122 139 146 146 121 134 133 142
246 248 247 249 239 230 249 246 253 246 258 257 248 250 248 236 233 209 200 158 147 138 128 135 164 156 159 159 143 147 146 167 140 112 89 78 109 118 139 142 150 159 148
248 250 243 241 242 222 254 260 231 254 257 255 251 262 257 236 183 192 216 152 148 144 141 129 137 165 158 149 146 150 166 148 148 128 119 116 123 142 152 165 171 151 161
243 241 243 232 238 241 237 248 234 234 242 248 249 264 247 153 163 211 173 140 149 143 147 141 125 129 129 133 127 148 147 137 137 135 132 149 152 182 189 185 190 172 186
233 234 237 242 239 240 240 235 245 249 249 258 254 248 192 156 171 192 146 138 128 127 138 130 122 113 111 94 127 147 140 145 142 144 152 166 166 188 169 152 116 130 88
226 223 219 229 236 237 234 227 221 234 237 240 251 248 171 171 161 135 117 107 97 95 106 113 112 95 94 120 117 136 123 139 148 148 144 137 139 115 128 138 139 143 101
223 223 227 232 235 234 231 224 229 234 224 239 245 235 174 172 173 161 141 130 127 129 115 111 108 121 125 119 113 114 116 127 132 134 140 149 178 141 152 144 126 145 157
217 222 224 227 229 225 228 234 163 306 275 249 239 202 184 155 154 138 116 117 124 130 109 131 144 139 141 140 134 127 120 127 129 136 138 154 146 137 142 154 129 140 170
218 223 215 202 215 225 218 225 249 304 241 206 188 161 155 151 131 125 129 124 131 119 130 144 145 145 149 143 145 141 145 165 153 156 144 145 146 140 149 135 135 146 135
216 218 219 216 221 224 222 222 188 192 126 114 79 133 134 125 123 124 124 124 112 101 130 136 137 135 140 142 140 138 132 125 129 139 134 145 158 150 137 147 127 116 109
241 216 207 215 218 228 199 137 123 96 188 118 114 82 103 111 115 120 114 114 127 123 120 119 124 125 125 126 129 130 126 132 136 135 138 134 123 119 128 142 133 131 114
239 169 185 190 167 129 117 107 134 145 108 109 107 112 120 110 113 102 91 96 100 111 115 120 115 111 114 121 123 121 118 118 116 117 120 133 144 138 138 138 156 160 198
134 128 122 162 124 123 121 127 117 100 101 101 97 102 106 111 111 106 103 98 99 103 103 99 99 105 109 110 110 110 116 127 123 128 130 133 141 128 147 151 114 102 87
199 144 151 128 116 112 114 107 104 100 97 101 98 83 85 92 96 99 98 91 87 85 89 94 84 79 77 100 124 130 144 152 140 134 136 137 125 97 78 73 68 52 45
90 94 94 97 104 111 108 107 107 106 107 101 96 93 93 93 95 95 95 89 79 76 72 76 78 64 51 59 56 68 87 80 118 135 125 92 87 84 83 83 76 59 51
98 99 102 99 100 101 105 103 101 95 99 96 97 98 96 95 96 90 84 81 77 68 62 66 62 65 65 64 57 50 52 60 68 80 89 92 86 80 87 86 82 78 77
94 98 99 103 103 106 104 99 98 97 98 100 101 97 95 91 90 87 81 80 80 79 73 65 66 66 69 76 76 75 70 69 79 84 89 94 97 94 91 84 81 70 67
96 98 102 102 102 103 102 102 101 100 100 99 100 100 100 93 89 90 89 86 88 83 83 75 70 71 73 67 74 78 72 71 73 71 84 89 91 90 89 81 70 68 75